• En España
  • Lista de países
  • Para 7 días
  • Temperatura del agua
  • Mapa Satelital
  • El tiempo en el mapa
  • Informadores
  • user-avatar
    Iniciar sesión

    Tiempo cada hora Salta

    Hoy, 16 Octubre, Martes

    Tiempo Temperatura Precipitaciones Viento Presión Humedad
    00:00 +19°C° 0 mm 1 mps 648 mmHg 61%
    01:00 +18°C° 0 mm 1 mps 647 mmHg 61%
    02:00 +18°C° 0 mm 1 mps 647 mmHg 61%
    03:00 +18°C° 0 mm 1 mps 647 mmHg 59%
    04:00 +18°C° 0 mm 1 mps 647 mmHg 56%
    05:00 +18°C° 0 mm 1 mps 647 mmHg 54%
    06:00 +20°C° 0 mm 1 mps 647 mmHg 49%
    07:00 +21°C° 0 mm 1 mps 648 mmHg 45%
    08:00 +23°C° 0 mm 1 mps 649 mmHg 41%
    09:00 +26°C° 0 mm 2 mps 649 mmHg 35%
    10:00 +28°C° 0 mm 2 mps 649 mmHg 30%
    11:00 +30°C° 0 mm 3 mps 650 mmHg 24%
    12:00 +31°C° 0 mm 3 mps 649 mmHg 23%
    13:00 +33°C° 0 mm 3 mps 648 mmHg 22%
    14:00 +34°C° 0 mm 3 mps 648 mmHg 20%
    15:00 +33°C° 0 mm 4 mps 647 mmHg 22%
    16:00 +32°C° 0 mm 4 mps 647 mmHg 24%
    17:00 +32°C° 0 mm 4 mps 647 mmHg 26%
    18:00 +28°C° 0 mm 3 mps 647 mmHg 33%
    19:00 +26°C° 0 mm 2 mps 647 mmHg 41%
    20:00 +24°C° 0 mm 1 mps 647 mmHg 48%
    21:00 +23°C° 0 mm 1 mps 647 mmHg 49%
    22:00 +22°C° 0 mm 1 mps 648 mmHg 51%
    23:00 +22°C° 0 mm 1 mps 648 mmHg 52%

    Mañana, 17 Octubre, Miércoles

    Tiempo Temperatura Precipitaciones Viento Presión Humedad
    00:00 +21°C° 0 mm 1 mps 648 mmHg 52%
    01:00 +21°C° 0 mm 1 mps 647 mmHg 52%
    02:00 +21°C° 0 mm 1 mps 647 mmHg 52%
    03:00 +19°C° 0 mm 2 mps 647 mmHg 50%
    04:00 +19°C° 0 mm 2 mps 647 mmHg 47%
    05:00 +19°C° 0 mm 2 mps 647 mmHg 45%
    06:00 +21°C° 0 mm 2 mps 648 mmHg 39%
    07:00 +25°C° 0 mm 1 mps 649 mmHg 34%
    08:00 +27°C° 0 mm 1 mps 650 mmHg 28%
    09:00 +29°C° 0 mm 1 mps 651 mmHg 24%
    10:00 +32°C° 0 mm 2 mps 651 mmHg 20%
    11:00 +35°C° 0 mm 2 mps 651 mmHg 15%
    12:00 +35°C° 0 mm 3 mps 650 mmHg 15%
    13:00 +36°C° 0 mm 4 mps 650 mmHg 14%
    14:00 +37°C° 0 mm 4 mps 649 mmHg 14%
    15:00 +36°C° 0 mm 4 mps 648 mmHg 17%
    16:00 +35°C° 0 mm 4 mps 648 mmHg 20%
    17:00 +34°C° 0 mm 4 mps 647 mmHg 24%
    18:00 +31°C° 0.1 mm 3 mps 647 mmHg 32%
    19:00 +28°C° 0.1 mm 2 mps 648 mmHg 40%
    20:00 +26°C° 0.1 mm 1 mps 648 mmHg 49%
    21:00 +25°C° 0.1 mm 1 mps 648 mmHg 51%
    22:00 +25°C° 0.1 mm 1 mps 649 mmHg 53%
    23:00 +24°C° 0.1 mm 1 mps 649 mmHg 56%

    Pasado mañana, 18 Octubre, Jueves

    Tiempo Temperatura Precipitaciones Viento Presión Humedad
    00:00 +24°C° 0 mm 1 mps 649 mmHg 55%
    01:00 +24°C° 0 mm 1 mps 648 mmHg 54%
    02:00 +23°C° 0 mm 1 mps 648 mmHg 54%
    03:00 +23°C° 0 mm 1 mps 648 mmHg 50%
    04:00 +23°C° 0 mm 2 mps 648 mmHg 47%
    05:00 +21°C° 0 mm 2 mps 648 mmHg 44%
    06:00 +24°C° 0 mm 2 mps 649 mmHg 39%
    07:00 +27°C° 0 mm 1 mps 650 mmHg 34%
    08:00 +29°C° 0 mm 1 mps 651 mmHg 28%
    09:00 +31°C° 0 mm 2 mps 651 mmHg 25%
    10:00 +32°C° 0 mm 2 mps 652 mmHg 22%
    11:00 +35°C° 0 mm 3 mps 652 mmHg 19%
    12:00 +36°C° 0 mm 3 mps 651 mmHg 19%
    13:00 +36°C° 0 mm 3 mps 651 mmHg 18%
    14:00 +37°C° 0 mm 4 mps 650 mmHg 18%
    15:00 +36°C° 0 mm 4 mps 650 mmHg 22%
    16:00 +35°C° 0 mm 4 mps 649 mmHg 25%
    17:00 +35°C° 0 mm 4 mps 649 mmHg 29%
    18:00 +31°C° 0.6 mm 3 mps 649 mmHg 39%
    19:00 +29°C° 0.6 mm 3 mps 649 mmHg 50%
    20:00 +27°C° 0.6 mm 2 mps 650 mmHg 60%
    21:00 +26°C° 0.4 mm 2 mps 650 mmHg 63%
    22:00 +25°C° 0.4 mm 2 mps 650 mmHg 65%
    23:00 +25°C° 0.4 mm 2 mps 650 mmHg 68%

    19 Octubre, Viernes

    Tiempo Temperatura Precipitaciones Viento Presión Humedad
    00:00 +24°C° 0 mm 1 mps 650 mmHg 69%
    01:00 +24°C° 0 mm 1 mps 650 mmHg 70%
    02:00 +23°C° 0 mm 1 mps 650 mmHg 70%
    03:00 +23°C° 0 mm 1 mps 650 mmHg 69%
    04:00 +23°C° 0 mm 1 mps 650 mmHg 68%
    05:00 +23°C° 0 mm 1 mps 650 mmHg 67%
    06:00 +24°C° 0 mm 2 mps 651 mmHg 61%
    07:00 +25°C° 0 mm 2 mps 652 mmHg 56%
    08:00 +27°C° 0 mm 3 mps 653 mmHg 50%
    09:00 +28°C° 0 mm 3 mps 653 mmHg 49%
    10:00 +29°C° 0 mm 3 mps 653 mmHg 49%
    11:00 +29°C° 0 mm 4 mps 653 mmHg 48%
    12:00 +29°C° 0.4 mm 4 mps 652 mmHg 50%
    13:00 +29°C° 0.4 mm 3 mps 651 mmHg 52%
    14:00 +29°C° 0.4 mm 3 mps 650 mmHg 54%
    15:00 +28°C° 0.4 mm 3 mps 650 mmHg 58%
    16:00 +27°C° 0.4 mm 3 mps 649 mmHg 62%
    17:00 +26°C° 0.4 mm 3 mps 649 mmHg 66%
    18:00 +25°C° 1.1 mm 2 mps 649 mmHg 72%
    19:00 +24°C° 1.1 mm 2 mps 650 mmHg 78%
    20:00 +23°C° 1.1 mm 2 mps 650 mmHg 83%
    21:00 +23°C° 0.4 mm 2 mps 651 mmHg 83%
    22:00 +23°C° 0.4 mm 1 mps 651 mmHg 83%
    23:00 +22°C° 0.4 mm 1 mps 651 mmHg 83%

    20 Octubre, Sábado

    Tiempo Temperatura Precipitaciones Viento Presión Humedad
    00:00 +22°C° 0.2 mm 1 mps 651 mmHg 84%
    01:00 +22°C° 0.2 mm 1 mps 650 mmHg 85%
    02:00 +22°C° 0.2 mm 1 mps 650 mmHg 86%
    03:00 +21°C° 0.1 mm 1 mps 650 mmHg 87%
    04:00 +21°C° 0.1 mm 1 mps 650 mmHg 87%
    05:00 +21°C° 0.1 mm 1 mps 650 mmHg 88%
    06:00 +22°C° 0 mm 1 mps 651 mmHg 83%
    07:00 +23°C° 0 mm 1 mps 651 mmHg 79%
    08:00 +24°C° 0 mm 1 mps 651 mmHg 74%
    09:00 +25°C° 0 mm 2 mps 651 mmHg 67%
    10:00 +27°C° 0 mm 2 mps 651 mmHg 60%
    11:00 +29°C° 0 mm 2 mps 651 mmHg 53%
    12:00 +29°C° 0 mm 3 mps 650 mmHg 52%
    13:00 +29°C° 0 mm 3 mps 649 mmHg 52%
    14:00 +30°C° 0 mm 3 mps 648 mmHg 51%
    15:00 +29°C° 0.1 mm 3 mps 648 mmHg 55%
    16:00 +28°C° 0.1 mm 2 mps 647 mmHg 59%
    17:00 +27°C° 0.1 mm 2 mps 647 mmHg 64%
    18:00 +26°C° 0.2 mm 2 mps 647 mmHg 69%
    19:00 +25°C° 0.2 mm 1 mps 648 mmHg 74%
    20:00 +24°C° 0.2 mm 1 mps 648 mmHg 79%
    21:00 +24°C° 0.3 mm 1 mps 649 mmHg 80%
    22:00 +23°C° 0.3 mm 1 mps 649 mmHg 81%
    23:00 +23°C° 0.3 mm 1 mps 649 mmHg 83%

    21 Octubre, Domingo

    Tiempo Temperatura Precipitaciones Viento Presión Humedad
    00:00 +23°C° 0.1 mm 1 mps 649 mmHg 83%
    01:00 +22°C° 0.1 mm 1 mps 649 mmHg 83%
    02:00 +22°C° 0.1 mm 1 mps 648 mmHg 84%
    03:00 +20°C° 0 mm 0 mps 649 mmHg 84%
    04:00 +20°C° 0 mm 0 mps 649 mmHg 84%
    05:00 +20°C° 0 mm 0 mps 649 mmHg 83%
    06:00 +23°C° 0 mm 1 mps 649 mmHg 76%
    07:00 +24°C° 0 mm 1 mps 650 mmHg 69%
    08:00 +26°C° 0 mm 1 mps 651 mmHg 62%
    09:00 +27°C° 0.1 mm 2 mps 651 mmHg 58%
    10:00 +29°C° 0.1 mm 2 mps 651 mmHg 53%
    11:00 +30°C° 0.1 mm 2 mps 651 mmHg 48%
    12:00 +30°C° 0.2 mm 2 mps 650 mmHg 49%
    13:00 +30°C° 0.2 mm 3 mps 649 mmHg 49%
    14:00 +30°C° 0.2 mm 3 mps 648 mmHg 49%
    15:00 +29°C° 0.4 mm 3 mps 648 mmHg 53%
    16:00 +28°C° 0.4 mm 3 mps 647 mmHg 57%
    17:00 +28°C° 0.4 mm 2 mps 647 mmHg 61%
    18:00 +26°C° 0.2 mm 2 mps 647 mmHg 67%
    19:00 +25°C° 0.2 mm 2 mps 648 mmHg 73%
    20:00 +24°C° 0.2 mm 1 mps 648 mmHg 79%
    21:00 +24°C° 0.1 mm 1 mps 648 mmHg 80%
    22:00 +23°C° 0.1 mm 1 mps 649 mmHg 81%
    23:00 +23°C° 0.1 mm 1 mps 649 mmHg 82%
    Mostrar más